{"data":{"norad_id":67533,"epoch":"2026-09-18T22:14:12.544512Z","epoch_age_seconds":208235,"freshness":"STALE","line1":"1 67533U 26014B   26261.92653408  .00012104  00000+0  37655-3 0  9997","line2":"2 67533  97.2854 147.2598 0001938  92.4094 267.7371 15.33451488 38394","mean_motion":15.33451488,"eccentricity":0.0001938,"inclination_deg":97.2854,"raan_deg":147.2598,"arg_perigee_deg":92.4094,"mean_anomaly_deg":267.7371,"bstar":0.00037655,"rev_number":3839,"period_min":93.905807341719,"perigee_km":464.19756934612,"apogee_km":466.85017229965,"semimajor_km":6843.6608708229,"source":"CELESTRAK","updated_at":"2026-09-20T09:00:43.565478Z"}}